MICROMAS-2A (43131 NORAD) Tracking and Keplerian Element Data

This shows tracking and keplerian element data for the satellite.

Feedback or suggestion? Click here.




ElementValue
Catalog43131
NameMICROMAS-2A
Epoch Orbit29010
Epoch Day84.8062653
Epoch Year2023
RAAN174.2171
Inclination97.3295
Eccentricity0.0006173
Argument of Perigee280.2468
Mean Anonmoly79.8108
Mean Motion15.887389
Decay Rate0.00735741
L11 43131U 18004W 23084.80626530 .00735741 21402-3 26404-2 0 9999
L22 43131 97.3295 174.2171 0006173 280.2468 79.8108 15.88738900290103



Live tracking and technical data element details for MICROMAS-2A (NORAD 43131). MICROMAS-2A can be tracked NOW for your location showing map with azimuth and elevation plus other details from your city location.







IsCatalogInMostPopularTable: catalog: 43131, numindb: 1115
Update: records affected: 1



GetName: 43131 MICROMAS-2A

Hit Count: updated at: Sat, 07 Mar 2026 05:22:33 GMT